Location: Bouchavesnes-Bergen
(49.9859°N, 2.9203°E)
Time: 03:26:21
(UTC+00:00)

Cosmos 2333 - Pass Details

Date: 09 March 2021
Orbit: 829 x 867 km, 70.9° (Epoch: 11 April)

Event Time Altitude Azimuth Distance (km) Brightness Sun altitude
Rises 03:58:25 0° 328° (NNW) 3,452 7.3 -22.4°
Reaches altitude 10° 04:00:55 10° 325° (NW) 2,514 6.5 -22.0°
Maximum altitude 04:06:36 61° 247° (WSW) 977 4.2 -21.1°
Drops below altitude 10° 04:12:17 10° 168° (SSE) 2,504 6.6 -20.3°
Sets 04:14:45 0° 165° (SSE) 3,436 7.3 -19.9°
